Time,TemperatureF,DewpointF,PressureIn,WindDirection,WindDirectionDegrees,WindSpeedMPH,WindSpeedGustMPH,Humidity,HourlyPrecipIn,Conditions,Clouds,dailyrainin,SolarRadiationWatts/m^2,SoftwareType,DateUTC
2016-12-09 00:03:00,34.0,20.0,29.98,NNE,19,0.0,1.0,55,-99.99,,,-99.99,0.000000,,2016-12-09 08:03:00,
2016-12-09 00:12:00,34.0,21.0,29.98,West,271,0.0,4.0,59,-99.99,,,-99.99,0.000000,,2016-12-09 08:12:00,
2016-12-09 00:23:00,34.0,23.0,29.98,NE,47,0.0,5.0,63,-99.99,,,-99.99,0.000000,,2016-12-09 08:23:00,
2016-12-09 00:33:00,33.0,23.0,29.98,North,5,1.0,2.0,65,-99.99,,,-99.99,0.000000,,2016-12-09 08:33:00,
2016-12-09 00:43:00,33.0,23.0,29.97,SSW,199,1.0,6.0,67,-99.99,,,-99.99,0.000000,,2016-12-09 08:43:00,
2016-12-09 00:53:00,32.0,23.0,29.98,WSW,257,0.0,6.0,68,-99.99,,,-99.99,0.000000,,2016-12-09 08:53:00,
2016-12-09 01:03:00,32.0,23.0,29.98,NNW,327,2.0,6.0,70,-99.99,,,-99.99,0.000000,,2016-12-09 09:03:00,
2016-12-09 01:13:00,32.0,24.0,29.98,North,355,0.0,4.0,72,-99.99,,,-99.99,0.000000,,2016-12-09 09:13:00,
2016-12-09 01:22:00,32.0,25.0,29.98,North,360,1.0,5.0,74,-99.99,,,-99.99,0.000000,,2016-12-09 09:22:00,
2016-12-09 01:33:00,31.0,24.0,29.98,WSW,252,0.0,3.0,76,-99.99,,,-99.99,0.000000,,2016-12-09 09:33:00,
2016-12-09 01:43:00,31.0,25.0,29.97,NNE,26,1.0,3.0,78,-99.99,,,-99.99,0.000000,,2016-12-09 09:43:00,
2016-12-09 01:53:00,31.0,25.0,29.98,WNW,299,2.0,3.0,79,-99.99,,,-99.99,0.000000,,2016-12-09 09:53:00,
2016-12-09 02:03:00,31.0,26.0,29.98,SW,223,1.0,4.0,80,-99.99,,,-99.99,0.000000,,2016-12-09 10:03:00,
2016-12-09 02:12:00,31.0,26.0,29.98,SW,229,0.0,4.0,81,-99.99,,,-99.99,0.000000,,2016-12-09 10:12:00,
2016-12-09 02:23:00,31.0,26.0,29.99,NW,319,0.0,4.0,82,-99.99,,,-99.99,0.000000,,2016-12-09 10:23:00,
2016-12-09 02:43:00,31.0,26.0,29.98,NE,41,0.0,4.0,82,-99.99,,,-99.99,0.000000,,2016-12-09 10:43:00,
2016-12-09 02:53:00,31.0,26.0,29.98,East,97,0.0,2.0,83,-99.99,,,-99.99,0.000000,,2016-12-09 10:53:00,
2016-12-09 03:02:00,31.0,26.0,29.98,East,96,0.0,2.0,83,-99.99,,,-99.99,0.000000,,2016-12-09 11:02:00,
2016-12-09 03:12:00,31.0,27.0,29.99,East,94,0.0,2.0,84,-99.99,,,-99.99,0.000000,,2016-12-09 11:12:00,
2016-12-09 03:23:00,31.0,27.0,29.98,WNW,290,0.0,3.0,84,-99.99,,,-99.99,0.000000,,2016-12-09 11:23:00,
2016-12-09 03:33:00,31.0,27.0,29.98,WNW,301,1.0,3.0,84,-99.99,,,-99.99,0.000000,,2016-12-09 11:33:00,
2016-12-09 03:43:00,31.0,27.0,29.98,West,270,1.0,3.0,84,-99.99,,,-99.99,0.000000,,2016-12-09 11:43:00,
2016-12-09 03:53:00,31.0,27.0,29.98,WNW,297,0.0,3.0,85,-99.99,,,-99.99,0.000000,,2016-12-09 11:53:00,
2016-12-09 04:03:00,31.0,27.0,29.97,SW,233,0.0,5.0,85,-99.99,,,-99.99,0.000000,,2016-12-09 12:03:00,
2016-12-09 04:12:00,31.0,27.0,29.97,WSW,244,0.0,2.0,85,-99.99,,,-99.99,,,2016-12-09 12:12:00,
2016-12-09 04:23:00,31.0,27.0,29.97,NNW,329,0.0,2.0,85,-99.99,,,-99.99,0.000000,,2016-12-09 12:23:00,
2016-12-09 04:33:00,31.0,27.0,29.97,SW,232,0.0,2.0,85,-99.99,,,-99.99,0.000000,,2016-12-09 12:33:00,
2016-12-09 04:43:00,31.0,27.0,29.97,WSW,243,0.0,2.0,86,-99.99,,,-99.99,0.000000,,2016-12-09 12:43:00,
2016-12-09 04:53:00,31.0,27.0,29.97,NNW,335,0.0,2.0,86,-99.99,,,-99.99,0.000000,,2016-12-09 12:53:00,
2016-12-09 05:03:00,32.0,28.0,29.97,North,349,0.0,3.0,86,-99.99,,,-99.99,0.000000,,2016-12-09 13:03:00,
2016-12-09 05:12:00,32.0,28.0,29.96,NE,36,0.0,3.0,86,-99.99,,,-99.99,0.000000,,2016-12-09 13:12:00,
2016-12-09 05:23:00,32.0,29.0,29.97,North,5,0.0,2.0,87,-99.99,,,-99.99,0.000000,,2016-12-09 13:23:00,
2016-12-09 05:33:00,32.0,29.0,29.97,NNW,338,0.0,2.0,87,-99.99,,,-99.99,0.000000,,2016-12-09 13:33:00,
2016-12-09 05:54:00,32.0,29.0,29.96,NNW,341,0.0,4.0,87,-99.99,,,-99.99,0.000000,,2016-12-09 13:54:00,
2016-12-09 06:03:00,32.0,29.0,29.96,NNW,340,1.0,3.0,87,-99.99,,,-99.99,0.000000,,2016-12-09 14:03:00,
2016-12-09 06:13:00,32.0,29.0,29.96,NE,43,0.0,2.0,87,-99.99,,,-99.99,0.000000,,2016-12-09 14:13:00,
2016-12-09 06:24:00,32.0,29.0,29.96,North,11,0.0,2.0,88,-99.99,,,-99.99,0.000000,,2016-12-09 14:24:00,
2016-12-09 06:33:00,32.0,29.0,29.96,NNE,32,0.0,1.0,88,-99.99,,,-99.99,0.000000,,2016-12-09 14:33:00,
2016-12-09 06:43:00,32.0,29.0,29.96,NNW,348,0.0,3.0,88,-99.99,,,-99.99,0.000000,,2016-12-09 14:43:00,
2016-12-09 06:53:00,33.0,30.0,29.96,WNW,302,0.0,0.0,88,-99.99,,,-99.99,0.000000,,2016-12-09 14:53:00,
2016-12-09 07:02:00,33.0,30.0,29.95,WNW,297,0.0,0.0,88,-99.99,,,-99.99,0.000000,,2016-12-09 15:02:00,
2016-12-09 07:12:00,33.0,30.0,29.96,WNW,298,0.0,0.0,88,-99.99,,,-99.99,0.000000,,2016-12-09 15:12:00,
2016-12-09 07:33:00,33.0,30.0,29.96,NNW,327,0.0,0.0,88,-99.99,,,-99.99,0.000000,,2016-12-09 15:33:00,
2016-12-09 07:43:00,33.0,30.0,29.96,NW,326,0.0,0.0,88,-99.99,,,-99.99,0.000000,,2016-12-09 15:43:00,
2016-12-09 07:53:00,33.0,30.0,29.96,NW,326,0.0,0.0,88,-99.99,,,-99.99,0.000000,,2016-12-09 15:53:00,
2016-12-09 08:03:00,33.0,30.0,29.95,ESE,115,0.0,0.0,88,-99.99,,,-99.99,0.000000,,2016-12-09 16:03:00,
2016-12-09 08:12:00,33.0,30.0,29.95,North,355,0.0,1.0,88,-99.99,,,-99.99,0.000000,,2016-12-09 16:12:00,
2016-12-09 08:22:00,33.0,30.0,29.95,NNW,331,1.0,3.0,89,-99.99,,,-99.99,0.000000,,2016-12-09 16:22:00,
2016-12-09 08:43:00,33.0,30.0,29.96,NNW,330,1.0,3.0,89,-99.99,,,-99.99,0.000000,,2016-12-09 16:43:00,
2016-12-09 09:03:00,33.0,30.0,29.97,West,277,0.0,1.0,89,-99.99,,,-99.99,0.000000,,2016-12-09 17:03:00,
2016-12-09 09:12:00,33.0,30.0,29.96,West,277,0.0,0.0,89,-99.99,,,-99.99,9.000000,,2016-12-09 17:12:00,
2016-12-09 09:23:00,33.0,30.0,29.96,SSE,162,1.0,2.0,89,-99.99,,,-99.99,7.000000,,2016-12-09 17:23:00,
2016-12-09 09:33:00,34.0,31.0,29.96,NW,319,1.0,5.0,89,-99.99,,,-99.99,9.000000,,2016-12-09 17:33:00,
2016-12-09 09:45:00,34.0,31.0,29.96,West,277,0.0,-999.0,89,-99.99,,,-99.99,14.000000,,2016-12-09 17:45:00,
2016-12-09 09:53:00,34.0,31.0,29.96,NW,322,1.0,2.0,89,-99.99,,,-99.99,7.000000,,2016-12-09 17:53:00,
2016-12-09 10:03:00,34.0,31.0,29.96,West,262,1.0,2.0,89,-99.99,,,-99.99,5.000000,,2016-12-09 18:03:00,
2016-12-09 10:12:00,34.0,31.0,29.96,NW,309,1.0,3.0,89,-99.99,,,-99.99,5.000000,,2016-12-09 18:12:00,
2016-12-09 10:23:00,34.0,31.0,29.96,ENE,65,0.0,-999.0,89,-99.99,,,-99.99,11.000000,,2016-12-09 18:23:00,
2016-12-09 10:33:00,34.0,31.0,29.96,NNE,23,0.0,4.0,89,-99.99,,,-99.99,12.000000,,2016-12-09 18:33:00,
2016-12-09 10:43:00,34.0,31.0,29.95,North,9,0.0,2.0,89,-99.99,,,-99.99,5.000000,,2016-12-09 18:43:00,
2016-12-09 10:53:00,34.0,31.0,29.95,North,355,1.0,6.0,90,-99.99,,,-99.99,12.000000,,2016-12-09 18:53:00,
2016-12-09 11:03:00,35.0,32.0,29.95,ENE,67,2.0,7.0,90,-99.99,,,-99.99,53.000000,,2016-12-09 19:03:00,
2016-12-09 11:12:00,35.0,32.0,29.94,NNE,18,1.0,5.0,90,-99.99,,,-99.99,53.000000,,2016-12-09 19:12:00,
2016-12-09 11:23:00,36.0,33.0,29.94,North,5,2.0,9.0,90,-99.99,,,-99.99,81.000000,,2016-12-09 19:23:00,
2016-12-09 11:43:00,36.0,33.0,29.94,NE,55,0.0,4.0,90,-99.99,,,-99.99,46.000000,,2016-12-09 19:43:00,
2016-12-09 11:53:00,36.0,33.0,29.93,NE,53,1.0,4.0,90,-99.99,,,-99.99,69.000000,,2016-12-09 19:53:00,
2016-12-09 12:03:00,36.0,33.0,29.93,NW,317,2.0,5.0,90,-99.99,,,-99.99,102.000000,,2016-12-09 20:03:00,
2016-12-09 12:12:00,36.0,33.0,29.94,East,85,1.0,7.0,90,-99.99,,,-99.99,65.000000,,2016-12-09 20:12:00,
2016-12-09 12:23:00,37.0,34.0,29.94,ENE,64,0.0,4.0,90,-99.99,,,-99.99,76.000000,,2016-12-09 20:23:00,
2016-12-09 12:33:00,37.0,34.0,29.93,NE,54,0.0,7.0,90,-99.99,,,-99.99,28.000000,,2016-12-09 20:33:00,
2016-12-09 12:43:00,37.0,34.0,29.93,ENE,78,1.0,4.0,90,-99.99,,,-99.99,63.000000,,2016-12-09 20:43:00,
2016-12-09 12:53:00,37.0,34.0,29.92,NW,315,0.0,3.0,90,-99.99,,,-99.99,58.000000,,2016-12-09 20:53:00,
2016-12-09 13:03:00,37.0,34.0,29.92,NNE,24,0.0,5.0,90,-99.99,,,-99.99,25.000000,,2016-12-09 21:03:00,
2016-12-09 13:12:00,37.0,34.0,29.91,ENE,59,1.0,5.0,90,-99.99,,,-99.99,19.000000,,2016-12-09 21:12:00,
2016-12-09 13:22:00,37.0,34.0,29.91,East,100,0.0,5.0,90,-99.99,,,-99.99,28.000000,,2016-12-09 21:22:00,
2016-12-09 13:33:00,37.0,34.0,29.91,NW,315,1.0,2.0,90,-99.99,,,-99.99,26.000000,,2016-12-09 21:33:00,
2016-12-09 13:43:00,37.0,34.0,29.91,South,177,1.0,6.0,90,-99.99,,,-99.99,25.000000,,2016-12-09 21:43:00,
2016-12-09 13:53:00,37.0,34.0,29.91,SE,134,1.0,3.0,90,-99.99,,,-99.99,25.000000,,2016-12-09 21:53:00,
2016-12-09 14:03:00,37.0,34.0,29.91,North,9,1.0,3.0,90,-99.99,,,-99.99,21.000000,,2016-12-09 22:03:00,
2016-12-09 14:12:00,37.0,34.0,29.91,WNW,284,0.0,3.0,90,-99.99,,,-99.99,18.000000,,2016-12-09 22:12:00,
2016-12-09 14:23:00,37.0,34.0,29.90,NW,318,0.0,-999.0,90,-99.99,,,-99.99,21.000000,,2016-12-09 22:23:00,
2016-12-09 14:33:00,37.0,34.0,29.90,NW,309,1.0,4.0,90,-99.99,,,-99.99,28.000000,,2016-12-09 22:33:00,
2016-12-09 14:43:00,37.0,34.0,29.89,North,350,0.0,2.0,90,-99.99,,,-99.99,21.000000,,2016-12-09 22:43:00,
2016-12-09 14:53:00,37.0,34.0,29.89,East,85,0.0,2.0,90,-99.99,,,-99.99,16.000000,,2016-12-09 22:53:00,
2016-12-09 15:02:00,37.0,34.0,29.90,ESE,103,3.0,6.0,90,-99.99,,,-99.99,12.000000,,2016-12-09 23:02:00,
2016-12-09 15:12:00,37.0,34.0,29.89,West,262,3.0,8.0,90,-99.99,,,-99.99,16.000000,,2016-12-09 23:12:00,
2016-12-09 15:23:00,37.0,34.0,29.89,NW,325,1.0,8.0,90,-99.99,,,-99.99,16.000000,,2016-12-09 23:23:00,
2016-12-09 15:33:00,37.0,34.0,29.89,NW,319,3.0,5.0,90,-99.99,,,-99.99,14.000000,,2016-12-09 23:33:00,
2016-12-09 15:43:00,37.0,34.0,29.89,NW,311,0.0,3.0,90,-99.99,,,-99.99,7.000000,,2016-12-09 23:43:00,
2016-12-09 15:53:00,37.0,34.0,29.89,NW,312,0.0,2.0,90,-99.99,,,-99.99,5.000000,,2016-12-09 23:53:00,
2016-12-09 16:03:00,37.0,34.0,29.88,North,355,1.0,5.0,90,-99.99,,,-99.99,7.000000,,2016-12-10 00:03:00,
2016-12-09 16:12:00,37.0,34.0,29.86,NNW,329,2.0,9.0,90,-99.99,,,-99.99,9.000000,,2016-12-10 00:12:00,
2016-12-09 16:23:00,37.0,34.0,29.86,North,350,3.0,8.0,90,-99.99,,,-99.99,5.000000,,2016-12-10 00:23:00,
2016-12-09 16:33:00,37.0,34.0,29.85,NE,45,3.0,9.0,90,-99.99,,,-99.99,0.000000,,2016-12-10 00:33:00,
2016-12-09 16:43:00,37.0,34.0,29.85,NE,42,3.0,11.0,90,-99.99,,,-99.99,0.000000,,2016-12-10 00:43:00,
2016-12-09 16:53:00,37.0,34.0,29.84,East,79,5.0,12.0,90,-99.99,,,-99.99,0.000000,,2016-12-10 00:53:00,
2016-12-09 17:03:00,37.0,34.0,29.85,East,97,2.0,10.0,90,-99.99,,,-99.99,0.000000,,2016-12-10 01:03:00,
2016-12-09 17:12:00,37.0,34.0,29.84,NNW,342,4.0,8.0,90,-99.99,,,-99.99,0.000000,,2016-12-10 01:12:00,
2016-12-09 17:23:00,37.0,34.0,29.84,NE,41,2.0,6.0,90,-99.99,,,-99.99,0.000000,,2016-12-10 01:23:00,
2016-12-09 17:33:00,37.0,34.0,29.83,WNW,294,2.0,6.0,90,-99.99,,,-99.99,0.000000,,2016-12-10 01:33:00,
2016-12-09 17:43:00,37.0,34.0,29.82,North,5,2.0,9.0,90,-99.99,,,-99.99,0.000000,,2016-12-10 01:43:00,
2016-12-09 17:53:00,37.0,34.0,29.81,East,80,1.0,10.0,90,-99.99,,,-99.99,0.000000,,2016-12-10 01:53:00,
2016-12-09 18:03:00,37.0,34.0,29.81,SW,221,2.0,6.0,90,-99.99,,,-99.99,0.000000,,2016-12-10 02:03:00,
2016-12-09 18:12:00,37.0,34.0,29.80,SSE,159,3.0,10.0,90,-99.99,,,-99.99,0.000000,,2016-12-10 02:12:00,
2016-12-09 18:23:00,37.0,34.0,29.80,NNW,333,2.0,4.0,90,-99.99,,,-99.99,0.000000,,2016-12-10 02:23:00,
2016-12-09 18:33:00,37.0,34.0,29.79,NNW,340,2.0,9.0,90,-99.99,,,-99.99,0.000000,,2016-12-10 02:33:00,
2016-12-09 18:43:00,38.0,35.0,29.78,East,95,3.0,10.0,90,-99.99,,,-99.99,0.000000,,2016-12-10 02:43:00,
2016-12-09 18:53:00,38.0,35.0,29.78,NW,323,2.0,3.0,90,-99.99,,,-99.99,0.000000,,2016-12-10 02:53:00,
2016-12-09 19:02:00,38.0,35.0,29.79,NW,320,1.0,5.0,90,-99.99,,,-99.99,0.000000,,2016-12-10 03:02:00,
2016-12-09 19:12:00,38.0,35.0,29.80,ENE,63,3.0,5.0,90,-99.99,,,-99.99,0.000000,,2016-12-10 03:12:00,
2016-12-09 19:22:00,38.0,35.0,29.80,NE,53,1.0,7.0,90,-99.99,,,-99.99,0.000000,,2016-12-10 03:22:00,
2016-12-09 19:33:00,38.0,35.0,29.80,NW,325,1.0,8.0,90,-99.99,,,-99.99,0.000000,,2016-12-10 03:33:00,
2016-12-09 19:43:00,38.0,35.0,29.80,East,101,2.0,9.0,90,-99.99,,,-99.99,0.000000,,2016-12-10 03:43:00,
2016-12-09 19:53:00,38.0,35.0,29.79,NNW,327,3.0,7.0,90,-99.99,,,-99.99,0.000000,,2016-12-10 03:53:00,
2016-12-09 20:12:00,38.0,35.0,29.78,North,-9999,-999.9,-999.0,90,-99.99,,,-99.99,,,2016-12-10 04:12:00,
2016-12-09 20:23:00,38.0,35.0,29.77,NE,39,1.0,6.0,90,-99.99,,,-99.99,0.000000,,2016-12-10 04:23:00,
2016-12-09 20:33:00,38.0,35.0,29.78,SE,134,2.0,-999.0,90,-99.99,,,-99.99,0.000000,,2016-12-10 04:33:00,
2016-12-09 20:55:00,38.0,35.0,29.77,ESE,113,2.0,10.0,90,-99.99,,,-99.99,0.000000,,2016-12-10 04:55:00,
2016-12-09 21:03:00,38.0,35.0,29.76,NE,37,3.0,11.0,90,-99.99,,,-99.99,0.000000,,2016-12-10 05:03:00,
2016-12-09 21:12:00,39.0,36.0,29.77,East,95,5.0,10.0,90,-99.99,,,-99.99,0.000000,,2016-12-10 05:12:00,
2016-12-09 21:22:00,39.0,36.0,29.77,SE,135,1.0,8.0,90,-99.99,,,-99.99,0.000000,,2016-12-10 05:22:00,
2016-12-09 21:35:00,40.0,37.0,29.76,ENE,72,5.0,10.0,90,-99.99,,,-99.99,0.000000,,2016-12-10 05:35:00,
2016-12-09 21:53:00,40.0,37.0,29.76,SSE,150,3.0,6.0,90,-99.99,,,-99.99,0.000000,,2016-12-10 05:53:00,
2016-12-09 22:02:00,41.0,38.0,29.76,SSE,155,3.0,6.0,90,-99.99,,,-99.99,0.000000,,2016-12-10 06:02:00,
2016-12-09 22:12:00,41.0,38.0,29.76,SSE,167,1.0,5.0,90,-99.99,,,-99.99,0.000000,,2016-12-10 06:12:00,
2016-12-09 22:23:00,40.0,37.0,29.76,SE,146,0.0,4.0,90,-99.99,,,-99.99,0.000000,,2016-12-10 06:23:00,
2016-12-09 22:33:00,40.0,37.0,29.77,ESE,111,0.0,4.0,90,-99.99,,,-99.99,0.000000,,2016-12-10 06:33:00,
2016-12-09 22:43:00,40.0,37.0,29.77,ESE,107,0.0,3.0,90,-99.99,,,-99.99,0.000000,,2016-12-10 06:43:00,
2016-12-09 22:53:00,40.0,37.0,29.78,East,101,1.0,2.0,90,-99.99,,,-99.99,0.000000,,2016-12-10 06:53:00,
2016-12-09 23:02:00,39.0,36.0,29.78,East,101,0.0,2.0,90,-99.99,,,-99.99,0.000000,,2016-12-10 07:02:00,
2016-12-09 23:12:00,39.0,36.0,29.78,East,101,0.0,2.0,90,-99.99,,,-99.99,0.000000,,2016-12-10 07:12:00,
2016-12-09 23:23:00,39.0,36.0,29.78,East,101,1.0,2.0,90,-99.99,,,-99.99,0.000000,,2016-12-10 07:23:00,